Tracking 29510 objects as of 15-Sep-2024
HD Live streaming from Space Station
objects crossing your sky now

ARIANE 44L DEB

Track ARIANE 44L DEB now!


NORAD ID: 28573
Int'l Code: 1991-003N
Perigee: 663.8 km
Apogee: 30,743.9 km
Inclination: 7.0 °
Period: 544.0 minutes
Semi major axis: 22074 km
RCS: 0.274 m2 (medium)
Launch date: January 15, 1991
Source: France (FR)
Launch site: FRENCH GUIANA (FRGUI)

Note: This is SATELLITE DEBRIS
Your satellite tracking list
Your tracking list is empty




NASA's NSSDC Master Catalog

Two Line Element Set (TLE):
1 28573U 91003N   24258.87095831 -.00000045  00000-0 -15746-2 0  9996
2 28573   7.0476 104.7713 6813197 352.6040 241.1334  2.64700884203933
Source of the keplerian elements: AFSPC